| time (UTC) | temp F | wind direction | speed knots | gust knots | rain 1hr in | rain 24hr in | rain mn in | humidity % | barometer mb |
| 20260504234604 | 76 | 330 | 5.2 | 0.0 | 0.00 | 0.00 | 0.00 | 16 | 994.8 |
| 20260504233057 | 76 | 41 | 7.0 | 0.0 | 0.00 | 0.00 | 0.00 | 16 | 994.4 |
| 20260504231557 | 77 | 277 | 7.8 | 0.0 | 0.00 | 0.00 | 0.00 | 14 | 994.2 |
| 20260504230011 | 78 | 298 | 5.2 | 0.0 | 0.00 | 0.00 | 0.00 | 13 | 993.9 |
| 20260504224508 | 80 | 268 | 4.3 | 0.0 | 0.00 | 0.00 | 0.00 | 12 | 993.8 |
| 20260504223005 | 80 | 295 | 3.5 | 0.0 | 0.00 | 0.00 | 0.00 | 12 | 993.4 |
| 20260504221542 | 81 | 308 | 2.6 | 0.0 | 0.00 | 0.00 | 0.00 | 12 | 993.6 |
| 20260504220006 | 80 | 279 | 3.5 | 0.0 | 0.00 | 0.00 | 0.00 | 11 | 993.4 |
| 20260504214513 | 81 | 319 | 2.6 | 0.0 | 0.00 | 0.00 | 0.00 | 12 | 993.5 |
| 20260504213042 | 82 | 325 | 4.3 | 0.0 | 0.00 | 0.00 | 0.00 | 12 | 993.8 |
| 20260504211522 | 82 | 284 | 3.5 | 0.0 | 0.00 | 0.00 | 0.00 | 11 | 993.6 |
| 20260504210049 | 83 | 316 | 4.3 | 0.0 | 0.00 | 0.00 | 0.00 | 13 | 993.7 |
| 20260504204506 | 81 | 213 | 5.2 | 0.0 | 0.00 | 0.00 | 0.00 | 11 | 994.1 |
| 20260504203037 | 84 | 137 | 2.6 | 0.0 | 0.00 | 0.00 | 0.00 | 11 | 994.0 |
| 20260504201540 | 85 | 316 | 2.6 | 0.0 | 0.00 | 0.00 | 0.00 | 12 | 994.0 |
| 20260504200050 | 83 | 72 | 4.3 | 0.0 | 0.00 | 0.00 | 0.00 | 14 | 993.6 |
| 20260504194604 | 83 | 230 | 5.2 | 0.0 | 0.00 | 0.00 | 0.00 | 12 | 993.9 |
| 20260504193014 | 83 | 277 | 3.5 | 0.0 | 0.00 | 0.00 | 0.00 | 13 | 994.1 |
| 20260504191512 | 82 | 326 | 4.3 | 0.0 | 0.00 | 0.00 | 0.00 | 15 | 994.2 |
| 20260504190100 | 82 | 312 | 4.3 | 0.0 | 0.00 | 0.00 | 0.00 | 15 | 994.6 |
| 20260504184518 | 81 | 320 | 3.5 | 0.0 | 0.00 | 0.00 | 0.00 | 17 | 994.9 |
| 20260504183056 | 80 | 8 | 4.3 | 0.0 | 0.00 | 0.00 | 0.00 | 18 | 995.2 |
| 20260504183002 | 80 | 340 | 4.3 | 0.0 | 0.00 | 0.00 | 0.00 | 18 | 995.2 |
| 20260504181510 | 79 | 326 | 3.5 | 0.0 | 0.00 | 0.00 | 0.00 | 17 | 995.5 |
| 20260504180018 | 80 | 308 | 3.5 | 0.0 | 0.00 | 0.00 | 0.00 | 18 | 995.4 |
| 20260504174526 | 79 | 51 | 4.3 | 0.0 | 0.00 | 0.00 | 0.00 | 20 | 995.9 |
| 20260504173023 | 79 | 288 | 4.3 | 0.0 | 0.00 | 0.00 | 0.00 | 20 | 996.1 |
| 20260504171539 | 78 | 310 | 4.3 | 0.0 | 0.00 | 0.00 | 0.00 | 18 | 996.3 |
| 20260504140108 | 58 | 315 | 3.5 | 0.0 | 0.00 | 0.00 | 0.00 | 41 | 997.6 |
| 20260504081546 | 54 | 3 | 1.7 | 0.0 | 0.00 | 0.00 | 0.00 | 47 | 997.5 |
| 20260504050012 | 57 | 145 | 1.7 | 0.0 | 0.00 | 0.00 | 0.00 | 37 | 999.5 |
| 20260504044546 | 57 | 113 | 1.7 | 0.0 | 0.00 | 0.00 | 0.00 | 37 | 999.5 |
| 20260504043040 | 57 | 121 | 0.9 | 0.0 | 0.00 | 0.00 | 0.00 | 37 | 999.5 |
| 20260504041502 | 57 | 102 | 1.7 | 0.0 | 0.00 | 0.00 | 0.00 | 36 | 999.8 |
| 20260504040035 | 57 | 107 | 3.5 | 0.0 | 0.00 | 0.00 | 0.00 | 35 | 1000.2 |
| 20260504034551 | 58 | 87 | 2.6 | 0.0 | 0.00 | 0.00 | 0.00 | 35 | 1000.4 |
| 20260504033013 | 59 | 78 | 2.6 | 0.0 | 0.00 | 0.00 | 0.00 | 33 | 1000.3 |
| 20260504031524 | 60 | 46 | 2.6 | 0.0 | 0.00 | 0.00 | 0.00 | 30 | 1000.2 |
| 20260504030044 | 62 | 45 | 3.5 | 0.0 | 0.00 | 0.00 | 0.00 | 28 | 999.8 |
| 20260504024604 | 63 | 49 | 2.6 | 0.0 | 0.00 | 0.00 | 0.00 | 27 | 999.1 |
| 20260504023100 | 65 | 51 | 2.6 | 0.0 | 0.00 | 0.00 | 0.00 | 25 | 998.8 |
| 20260504023003 | 66 | 46 | 2.6 | 0.0 | 0.00 | 0.00 | 0.00 | 25 | 998.8 |
| 20260504021508 | 68 | 41 | 0.9 | 0.0 | 0.00 | 0.00 | 0.00 | 24 | 998.5 |
| 20260504020016 | 71 | 54 | 0.9 | 0.0 | 0.00 | 0.00 | 0.00 | 21 | 998.6 |
| 20260504014518 | 73 | 80 | 1.7 | 0.0 | 0.00 | 0.00 | 0.00 | 20 | 998.3 |
| 20260504013042 | 75 | 80 | 1.7 | 0.0 | 0.00 | 0.00 | 0.00 | 19 | 998.0 |
| 20260504011512 | 77 | 82 | 2.6 | 0.0 | 0.00 | 0.00 | 0.00 | 18 | 997.8 |
| 20260504010056 | 76 | 61 | 2.6 | 0.0 | 0.00 | 0.00 | 0.00 | 16 | 999.1 |
| 20260504004602 | 77 | 62 | 3.5 | 0.0 | 0.00 | 0.00 | 0.00 | 15 | 999.2 |
| 20260504003004 | 78 | 17 | 2.6 | 0.0 | 0.00 | 0.00 | 0.00 | 14 | 999.0 |
| 20260504001510 | 78 | 48 | 4.3 | 0.0 | 0.00 | 0.00 | 0.00 | 14 | 999.1 |
| 20260504000010 | 77 | 354 | 3.5 | 0.0 | 0.00 | 0.00 | 0.00 | 16 | 999.8 |